| time (UTC) | temp F | wind direction | speed knots | gust knots | rain 1hr in | rain 24hr in | rain mn in | humidity % | barometer mb |
| 20260507090503 | 54 | 294 | 0.9 | 5.2 | 0.00 | 0.00 | 0.00 | 87 | 1019.1 |
| 20260507090025 | 54 | 277 | 0.9 | 3.5 | 0.00 | 0.00 | 0.00 | 87 | 1019.1 |
| 20260507085524 | 54 | 276 | 0.9 | 5.2 | 0.00 | 0.00 | 0.00 | 87 | 1019.1 |
| 20260507085003 | 54 | 272 | 2.6 | 7.0 | 0.00 | 0.00 | 0.00 | 87 | 1019.2 |
| 20260507084524 | 55 | 270 | 3.5 | 7.8 | 0.00 | 0.00 | 0.00 | 87 | 1019.3 |
| 20260507084003 | 55 | 279 | 2.6 | 7.8 | 0.00 | 0.00 | 0.00 | 87 | 1019.2 |
| 20260507083503 | 55 | 284 | 2.6 | 7.0 | 0.00 | 0.00 | 0.00 | 87 | 1019.2 |
| 20260507083004 | 55 | 271 | 2.6 | 7.0 | 0.00 | 0.00 | 0.00 | 87 | 1019.2 |
| 20260507082503 | 55 | 262 | 3.5 | 6.1 | 0.00 | 0.00 | 0.00 | 87 | 1019.3 |
| 20260507082024 | 55 | 261 | 3.5 | 6.1 | 0.00 | 0.00 | 0.00 | 87 | 1019.2 |
| 20260507081503 | 55 | 268 | 2.6 | 6.1 | 0.00 | 0.00 | 0.00 | 87 | 1019.2 |
| 20260507081024 | 55 | 279 | 1.7 | 5.2 | 0.00 | 0.00 | 0.00 | 88 | 1019.2 |
| 20260507080503 | 55 | 279 | 2.6 | 6.1 | 0.00 | 0.00 | 0.00 | 87 | 1019.3 |
| 20260507080003 | 55 | 270 | 2.6 | 6.1 | 0.00 | 0.00 | 0.00 | 87 | 1019.2 |
| 20260507075503 | 55 | 269 | 3.5 | 7.0 | 0.00 | 0.00 | 0.00 | 87 | 1019.3 |
| 20260507075003 | 55 | 267 | 3.5 | 7.0 | 0.00 | 0.00 | 0.00 | 87 | 1019.2 |
| 20260507074503 | 55 | 257 | 4.3 | 7.0 | 0.00 | 0.00 | 0.00 | 87 | 1019.3 |
| 20260507074003 | 55 | 258 | 3.5 | 7.0 | 0.00 | 0.00 | 0.00 | 87 | 1019.2 |
| 20260507073503 | 55 | 254 | 4.3 | 7.8 | 0.00 | 0.00 | 0.00 | 87 | 1019.2 |
| 20260507073003 | 55 | 247 | 4.3 | 7.8 | 0.00 | 0.00 | 0.00 | 87 | 1019.3 |
| 20260507072503 | 55 | 248 | 3.5 | 7.0 | 0.00 | 0.00 | 0.00 | 87 | 1019.3 |
| 20260507072003 | 55 | 258 | 3.5 | 6.1 | 0.00 | 0.00 | 0.00 | 87 | 1019.2 |
| 20260507071524 | 55 | 263 | 4.3 | 7.0 | 0.00 | 0.00 | 0.00 | 87 | 1019.2 |
| 20260507071003 | 56 | 263 | 3.5 | 7.0 | 0.00 | 0.00 | 0.00 | 87 | 1019.2 |
| 20260507070524 | 56 | 263 | 2.6 | 6.1 | 0.00 | 0.00 | 0.00 | 87 | 1019.3 |
| 20260507070005 | 55 | 266 | 2.6 | 5.2 | 0.00 | 0.00 | 0.00 | 87 | 1019.2 |
| 20260507065503 | 55 | 273 | 2.6 | 6.1 | 0.00 | 0.00 | 0.00 | 87 | 1019.3 |
| 20260507065003 | 55 | 269 | 1.7 | 6.1 | 0.00 | 0.00 | 0.00 | 87 | 1019.2 |
| 20260507064503 | 55 | 248 | 1.7 | 6.1 | 0.00 | 0.00 | 0.00 | 87 | 1019.2 |
| 20260507064003 | 55 | 239 | 2.6 | 7.0 | 0.00 | 0.00 | 0.00 | 87 | 1019.3 |
| 20260507063503 | 55 | 241 | 3.5 | 7.0 | 0.00 | 0.00 | 0.00 | 87 | 1019.2 |
| 20260507063003 | 55 | 253 | 3.5 | 7.0 | 0.00 | 0.00 | 0.00 | 87 | 1019.1 |
| 20260507062524 | 55 | 258 | 3.5 | 6.1 | 0.00 | 0.00 | 0.00 | 87 | 1019.2 |
| 20260507062024 | 55 | 253 | 3.5 | 7.0 | 0.00 | 0.00 | 0.00 | 87 | 1019.2 |
| 20260507061503 | 55 | 247 | 3.5 | 7.0 | 0.00 | 0.00 | 0.00 | 87 | 1019.1 |
| 20260507061003 | 55 | 251 | 3.5 | 7.0 | 0.00 | 0.00 | 0.00 | 87 | 1019.2 |
| 20260507060503 | 55 | 248 | 3.5 | 7.0 | 0.00 | 0.00 | 0.00 | 87 | 1019.2 |
| 20260507060003 | 56 | 229 | 3.5 | 6.1 | 0.00 | 0.00 | 0.00 | 87 | 1019.2 |
| 20260507055524 | 56 | 220 | 2.6 | 6.1 | 0.00 | 0.00 | 0.00 | 87 | 1019.3 |
| 20260507055003 | 56 | 237 | 1.7 | 5.2 | 0.00 | 0.00 | 0.00 | 87 | 1019.2 |
| 20260507054503 | 55 | 278 | 0.9 | 3.5 | 0.00 | 0.00 | 0.00 | 87 | 1019.3 |
| 20260507054003 | 55 | 283 | 0.9 | 3.5 | 0.00 | 0.00 | 0.00 | 87 | 1019.2 |
| 20260507053503 | 55 | 275 | 1.7 | 3.5 | 0.00 | 0.00 | 0.00 | 87 | 1019.3 |
| 20260507053003 | 55 | 276 | 1.7 | 7.0 | 0.00 | 0.00 | 0.00 | 87 | 1019.3 |
| 20260507052503 | 55 | 277 | 1.7 | 7.0 | 0.00 | 0.00 | 0.00 | 87 | 1019.3 |
| 20260507052003 | 55 | 275 | 2.6 | 7.0 | 0.00 | 0.00 | 0.00 | 87 | 1019.4 |
| 20260507051503 | 55 | 275 | 3.5 | 8.7 | 0.00 | 0.00 | 0.00 | 87 | 1019.3 |
| 20260507051003 | 55 | 283 | 3.5 | 8.7 | 0.00 | 0.00 | 0.00 | 87 | 1019.3 |
| 20260507050503 | 55 | 282 | 3.5 | 7.0 | 0.00 | 0.00 | 0.00 | 87 | 1019.2 |
| 20260507050024 | 55 | 274 | 4.3 | 8.7 | 0.00 | 0.00 | 0.00 | 87 | 1019.2 |
| 20260507045503 | 55 | 280 | 3.5 | 8.7 | 0.00 | 0.00 | 0.00 | 87 | 1019.2 |
| 20260507045024 | 55 | 287 | 2.6 | 7.8 | 0.00 | 0.00 | 0.00 | 87 | 1019.1 |
| 20260507044503 | 56 | 282 | 3.5 | 8.7 | 0.00 | 0.00 | 0.00 | 87 | 1019.2 |
| 20260507044003 | 56 | 276 | 2.6 | 8.7 | 0.00 | 0.00 | 0.00 | 87 | 1019.1 |
| 20260507043503 | 56 | 274 | 3.5 | 8.7 | 0.00 | 0.00 | 0.00 | 87 | 1019.0 |
| 20260507043003 | 56 | 281 | 3.5 | 8.7 | 0.00 | 0.00 | 0.00 | 87 | 1019.0 |
| 20260507042503 | 56 | 281 | 4.3 | 9.6 | 0.00 | 0.00 | 0.00 | 87 | 1019.0 |
| 20260507042003 | 56 | 282 | 3.5 | 9.6 | 0.00 | 0.00 | 0.00 | 87 | 1018.9 |
| 20260507041503 | 56 | 286 | 2.6 | 6.1 | 0.00 | 0.00 | 0.00 | 86 | 1018.9 |
| 20260507041003 | 56 | 273 | 3.5 | 9.6 | 0.00 | 0.00 | 0.00 | 86 | 1018.9 |
| 20260507040503 | 56 | 271 | 5.2 | 12.2 | 0.00 | 0.00 | 0.00 | 86 | 1018.8 |
| 20260507040003 | 56 | 270 | 5.2 | 12.2 | 0.00 | 0.00 | 0.00 | 86 | 1018.7 |
| 20260507035503 | 56 | 269 | 6.1 | 13.0 | 0.00 | 0.00 | 0.00 | 86 | 1018.7 |
| 20260507035003 | 56 | 269 | 7.0 | 13.0 | 0.00 | 0.00 | 0.00 | 86 | 1018.6 |
| 20260507034524 | 56 | 268 | 6.1 | 10.4 | 0.00 | 0.00 | 0.00 | 86 | 1018.6 |
| 20260507034003 | 56 | 274 | 7.0 | 11.3 | 0.00 | 0.00 | 0.00 | 86 | 1018.7 |
| 20260507033503 | 56 | 275 | 7.0 | 11.3 | 0.00 | 0.00 | 0.00 | 86 | 1018.6 |
| 20260507033003 | 56 | 273 | 6.1 | 11.3 | 0.00 | 0.00 | 0.00 | 85 | 1018.6 |
| 20260507032503 | 56 | 273 | 6.1 | 10.4 | 0.00 | 0.00 | 0.00 | 85 | 1018.5 |
| 20260507032003 | 56 | 271 | 7.0 | 13.0 | 0.00 | 0.00 | 0.00 | 85 | 1018.5 |
| 20260507031503 | 57 | 267 | 6.1 | 13.0 | 0.00 | 0.00 | 0.00 | 85 | 1018.6 |
| 20260507031003 | 57 | 267 | 5.2 | 13.0 | 0.00 | 0.00 | 0.00 | 85 | 1018.4 |
| 20260507030503 | 57 | 269 | 6.1 | 12.2 | 0.00 | 0.00 | 0.00 | 84 | 1018.3 |
| 20260507030003 | 57 | 272 | 7.0 | 13.0 | 0.00 | 0.00 | 0.00 | 84 | 1018.3 |
| 20260507025524 | 57 | 275 | 7.0 | 13.0 | 0.00 | 0.00 | 0.00 | 83 | 1018.2 |
| 20260507025003 | 57 | 277 | 7.0 | 15.6 | 0.00 | 0.00 | 0.00 | 83 | 1018.2 |
| 20260507024503 | 57 | 280 | 6.1 | 15.6 | 0.00 | 0.00 | 0.00 | 83 | 1018.1 |
| 20260507024003 | 58 | 279 | 6.1 | 13.0 | 0.00 | 0.00 | 0.00 | 82 | 1018.1 |
| 20260507023503 | 58 | 281 | 7.0 | 13.0 | 0.00 | 0.00 | 0.00 | 81 | 1018.1 |
| 20260507023003 | 58 | 284 | 7.0 | 13.0 | 0.00 | 0.00 | 0.00 | 81 | 1017.9 |
| 20260507022503 | 59 | 283 | 7.0 | 13.0 | 0.00 | 0.00 | 0.00 | 80 | 1018.0 |
| 20260507022003 | 59 | 282 | 6.1 | 13.0 | 0.00 | 0.00 | 0.00 | 80 | 1018.1 |
| 20260507021503 | 59 | 286 | 6.1 | 13.0 | 0.00 | 0.00 | 0.00 | 80 | 1018.1 |
| 20260507021003 | 59 | 284 | 7.0 | 13.0 | 0.00 | 0.00 | 0.00 | 79 | 1018.0 |
| 20260507020524 | 59 | 282 | 7.0 | 13.0 | 0.00 | 0.00 | 0.00 | 79 | 1018.1 |
| 20260507020003 | 60 | 281 | 7.0 | 11.3 | 0.00 | 0.00 | 0.00 | 79 | 1018.1 |
| 20260507015503 | 60 | 282 | 6.1 | 10.4 | 0.00 | 0.00 | 0.00 | 78 | 1018.2 |
| 20260507015004 | 60 | 289 | 7.0 | 15.6 | 0.00 | 0.00 | 0.00 | 78 | 1018.1 |
| 20260507014503 | 60 | 292 | 7.0 | 15.6 | 0.00 | 0.00 | 0.00 | 77 | 1018.1 |
| 20260507014024 | 61 | 291 | 6.1 | 13.0 | 0.00 | 0.00 | 0.00 | 77 | 1018.2 |
| 20260507013503 | 61 | 284 | 7.0 | 13.0 | 0.00 | 0.00 | 0.00 | 76 | 1018.0 |
| 20260507013003 | 61 | 284 | 7.8 | 13.9 | 0.00 | 0.00 | 0.00 | 76 | 1018.1 |
| 20260507012503 | 62 | 289 | 6.1 | 13.9 | 0.00 | 0.00 | 0.00 | 75 | 1018.0 |
| 20260507012003 | 62 | 291 | 6.1 | 13.0 | 0.00 | 0.00 | 0.00 | 75 | 1018.0 |
| 20260507011503 | 62 | 290 | 7.0 | 13.0 | 0.00 | 0.00 | 0.00 | 75 | 1018.0 |
| 20260507011003 | 62 | 289 | 6.1 | 12.2 | 0.00 | 0.00 | 0.00 | 74 | 1018.1 |
| 20260507010503 | 63 | 289 | 6.1 | 11.3 | 0.00 | 0.00 | 0.00 | 74 | 1018.0 |
| 20260507010024 | 63 | 298 | 6.1 | 12.2 | 0.00 | 0.00 | 0.00 | 74 | 1018.0 |
| 20260507005524 | 63 | 303 | 6.1 | 13.0 | 0.00 | 0.00 | 0.00 | 74 | 1018.0 |
| 20260507005003 | 63 | 297 | 6.1 | 13.0 | 0.00 | 0.00 | 0.00 | 73 | 1017.9 |
| 20260507004524 | 63 | 295 | 7.0 | 13.9 | 0.00 | 0.00 | 0.00 | 73 | 1017.9 |
| 20260507004003 | 63 | 299 | 7.0 | 13.9 | 0.00 | 0.00 | 0.00 | 73 | 1017.9 |
| 20260507003503 | 64 | 300 | 7.0 | 13.0 | 0.00 | 0.00 | 0.00 | 72 | 1017.8 |
| 20260507003003 | 64 | 295 | 7.0 | 13.9 | 0.00 | 0.00 | 0.00 | 72 | 1017.8 |
| 20260507002524 | 64 | 301 | 7.8 | 13.9 | 0.00 | 0.00 | 0.00 | 73 | 1017.7 |
| 20260507002003 | 64 | 303 | 8.7 | 14.8 | 0.00 | 0.00 | 0.00 | 72 | 1017.7 |
| 20260507001503 | 64 | 303 | 7.8 | 14.8 | 0.00 | 0.00 | 0.00 | 72 | 1017.8 |
| 20260507001024 | 64 | 303 | 7.0 | 12.2 | 0.00 | 0.00 | 0.00 | 71 | 1017.9 |
| 20260507000503 | 64 | 300 | 7.0 | 13.0 | 0.00 | 0.00 | 0.00 | 71 | 1017.8 |
| 20260507000003 | 64 | 300 | 7.0 | 13.9 | 0.00 | 0.00 | 0.00 | 71 | 1017.9 |
| 20260506235503 | 64 | 299 | 7.8 | 13.9 | 0.00 | 0.00 | 0.00 | 71 | 1017.9 |
| 20260506235003 | 65 | 303 | 7.8 | 13.9 | 0.00 | 0.00 | 0.00 | 71 | 1018.0 |
| 20260506234503 | 65 | 303 | 7.8 | 13.9 | 0.00 | 0.00 | 0.00 | 71 | 1018.0 |
| 20260506234003 | 65 | 293 | 7.8 | 13.0 | 0.00 | 0.00 | 0.00 | 70 | 1017.8 |
| 20260506233503 | 65 | 293 | 7.8 | 13.0 | 0.00 | 0.00 | 0.00 | 71 | 1017.6 |
| 20260506233003 | 65 | 299 | 7.8 | 13.0 | 0.00 | 0.00 | 0.00 | 70 | 1017.5 |
| 20260506232503 | 65 | 299 | 7.0 | 13.0 | 0.00 | 0.00 | 0.00 | 70 | 1017.7 |
| 20260506232003 | 65 | 284 | 7.8 | 13.9 | 0.00 | 0.00 | 0.00 | 72 | 1017.8 |
| 20260506231503 | 65 | 281 | 7.0 | 13.9 | 0.00 | 0.00 | 0.00 | 71 | 1017.9 |
| 20260506231003 | 65 | 281 | 7.0 | 14.8 | 0.00 | 0.00 | 0.00 | 72 | 1017.9 |
| 20260506230503 | 64 | 284 | 8.7 | 16.5 | 0.00 | 0.00 | 0.00 | 72 | 1018.0 |
| 20260506230003 | 64 | 304 | 8.7 | 16.5 | 0.00 | 0.00 | 0.00 | 72 | 1018.1 |
| 20260506225503 | 65 | 308 | 8.7 | 13.9 | 0.00 | 0.00 | 0.00 | 72 | 1018.2 |
| 20260506225003 | 65 | 300 | 7.8 | 14.8 | 0.00 | 0.00 | 0.00 | 71 | 1018.1 |
| 20260506224503 | 66 | 309 | 7.8 | 14.8 | 0.00 | 0.00 | 0.00 | 71 | 1018.1 |
| 20260506224003 | 66 | 309 | 7.8 | 14.8 | 0.00 | 0.00 | 0.00 | 72 | 1018.2 |
| 20260506223524 | 66 | 298 | 7.8 | 13.9 | 0.00 | 0.00 | 0.00 | 71 | 1018.4 |
| 20260506223003 | 66 | 297 | 7.8 | 14.8 | 0.00 | 0.00 | 0.00 | 71 | 1018.5 |
| 20260506222503 | 66 | 297 | 8.7 | 16.5 | 0.00 | 0.00 | 0.00 | 70 | 1018.4 |
| 20260506222003 | 66 | 298 | 7.8 | 16.5 | 0.00 | 0.00 | 0.00 | 70 | 1018.4 |
| 20260506221504 | 66 | 312 | 7.8 | 16.5 | 0.00 | 0.00 | 0.00 | 71 | 1018.6 |
| 20260506221003 | 66 | 323 | 8.7 | 16.5 | 0.00 | 0.00 | 0.00 | 71 | 1018.7 |
| 20260506220503 | 65 | 323 | 8.7 | 15.6 | 0.00 | 0.00 | 0.00 | 71 | 1018.6 |
| 20260506220003 | 66 | 318 | 9.6 | 16.5 | 0.00 | 0.00 | 0.00 | 71 | 1018.6 |
| 20260506215503 | 66 | 318 | 8.7 | 16.5 | 0.00 | 0.00 | 0.00 | 71 | 1018.6 |
| 20260506215003 | 66 | 320 | 8.7 | 16.5 | 0.00 | 0.00 | 0.00 | 70 | 1018.6 |
| 20260506214503 | 66 | 320 | 8.7 | 16.5 | 0.00 | 0.00 | 0.00 | 70 | 1018.6 |
| 20260506214024 | 66 | 312 | 7.8 | 14.8 | 0.00 | 0.00 | 0.00 | 69 | 1018.7 |
| 20260506213524 | 67 | 309 | 7.8 | 14.8 | 0.00 | 0.00 | 0.00 | 69 | 1018.8 |
| 20260506213003 | 66 | 315 | 7.8 | 14.8 | 0.00 | 0.00 | 0.00 | 70 | 1018.8 |
| 20260506212503 | 67 | 316 | 7.0 | 14.8 | 0.00 | 0.00 | 0.00 | 68 | 1019.0 |
| 20260506212024 | 67 | 313 | 7.8 | 13.9 | 0.00 | 0.00 | 0.00 | 69 | 1018.9 |
| 20260506211503 | 68 | 312 | 7.8 | 14.8 | 0.00 | 0.00 | 0.00 | 67 | 1019.0 |
| 20260506211003 | 69 | 309 | 6.1 | 14.8 | 0.00 | 0.00 | 0.00 | 66 | 1019.0 |
| 20260506210503 | 69 | 307 | 6.1 | 11.3 | 0.00 | 0.00 | 0.00 | 66 | 1018.9 |
| 20260506210003 | 69 | 311 | 6.1 | 11.3 | 0.00 | 0.00 | 0.00 | 66 | 1018.9 |
| 20260506205503 | 69 | 311 | 5.2 | 12.2 | 0.00 | 0.00 | 0.00 | 65 | 1019.0 |
| 20260506205003 | 69 | 307 | 5.2 | 12.2 | 0.00 | 0.00 | 0.00 | 65 | 1019.1 |
| 20260506204524 | 69 | 306 | 5.2 | 10.4 | 0.00 | 0.00 | 0.00 | 64 | 1019.2 |
| 20260506204003 | 69 | 304 | 5.2 | 10.4 | 0.00 | 0.00 | 0.00 | 66 | 1019.2 |
| 20260506203503 | 69 | 306 | 6.1 | 10.4 | 0.00 | 0.00 | 0.00 | 66 | 1019.3 |
| 20260506203003 | 68 | 316 | 6.1 | 10.4 | 0.00 | 0.00 | 0.00 | 65 | 1019.4 |
| 20260506202503 | 68 | 322 | 5.2 | 10.4 | 0.00 | 0.00 | 0.00 | 66 | 1019.4 |
| 20260506202003 | 68 | 322 | 5.2 | 10.4 | 0.00 | 0.00 | 0.00 | 66 | 1019.5 |
| 20260506201503 | 68 | 326 | 6.1 | 10.4 | 0.00 | 0.00 | 0.00 | 67 | 1019.5 |
| 20260506201003 | 67 | 327 | 6.1 | 10.4 | 0.00 | 0.00 | 0.00 | 66 | 1019.5 |
| 20260506200503 | 68 | 320 | 5.2 | 9.6 | 0.00 | 0.00 | 0.00 | 66 | 1019.5 |
| 20260506200003 | 68 | 321 | 5.2 | 9.6 | 0.00 | 0.00 | 0.00 | 65 | 1019.6 |
| 20260506195503 | 68 | 310 | 5.2 | 9.6 | 0.00 | 0.00 | 0.00 | 64 | 1019.6 |
| 20260506195003 | 68 | 309 | 4.3 | 9.6 | 0.00 | 0.00 | 0.00 | 64 | 1019.7 |
| 20260506194503 | 68 | 328 | 3.5 | 8.7 | 0.00 | 0.00 | 0.00 | 66 | 1019.9 |
| 20260506194003 | 67 | 331 | 4.3 | 8.7 | 0.00 | 0.00 | 0.00 | 66 | 1019.8 |
| 20260506193503 | 67 | 338 | 4.3 | 8.7 | 0.00 | 0.00 | 0.00 | 67 | 1019.9 |
| 20260506193003 | 67 | 352 | 3.5 | 8.7 | 0.00 | 0.00 | 0.00 | 66 | 1019.9 |
| 20260506192524 | 67 | 349 | 3.5 | 8.7 | 0.00 | 0.00 | 0.00 | 67 | 1019.9 |
| 20260506192003 | 66 | 326 | 4.3 | 8.7 | 0.00 | 0.00 | 0.00 | 67 | 1020.0 |
| 20260506191503 | 66 | 310 | 4.3 | 8.7 | 0.00 | 0.00 | 0.00 | 68 | 1020.0 |
| 20260506191003 | 66 | 324 | 4.3 | 7.8 | 0.00 | 0.00 | 0.00 | 68 | 1020.2 |
| 20260506190524 | 66 | 342 | 3.5 | 7.8 | 0.00 | 0.00 | 0.00 | 67 | 1020.2 |
| 20260506190004 | 66 | 5 | 3.5 | 7.0 | 0.00 | 0.00 | 0.00 | 68 | 1020.2 |
| 20260506185503 | 66 | 19 | 3.5 | 7.8 | 0.00 | 0.00 | 0.00 | 68 | 1020.2 |
| 20260506185003 | 66 | 17 | 3.5 | 7.8 | 0.00 | 0.00 | 0.00 | 67 | 1020.2 |
| 20260506184503 | 66 | 12 | 3.5 | 7.8 | 0.00 | 0.00 | 0.00 | 68 | 1020.3 |
| 20260506184003 | 66 | 6 | 3.5 | 7.0 | 0.00 | 0.00 | 0.00 | 68 | 1020.3 |
| 20260506183503 | 65 | 356 | 3.5 | 7.0 | 0.00 | 0.00 | 0.00 | 69 | 1020.2 |
| 20260506183004 | 65 | 3 | 3.5 | 7.8 | 0.00 | 0.00 | 0.00 | 70 | 1020.3 |
| 20260506182503 | 65 | 15 | 3.5 | 7.8 | 0.00 | 0.00 | 0.00 | 69 | 1020.3 |
| 20260506182003 | 65 | 18 | 3.5 | 7.0 | 0.00 | 0.00 | 0.00 | 71 | 1020.4 |
| 20260506181503 | 65 | 26 | 3.5 | 7.8 | 0.00 | 0.00 | 0.00 | 71 | 1020.3 |
| 20260506181024 | 64 | 23 | 4.3 | 8.7 | 0.00 | 0.00 | 0.00 | 71 | 1020.2 |
| 20260506180503 | 64 | 20 | 4.3 | 8.7 | 0.00 | 0.00 | 0.00 | 72 | 1020.3 |
| 20260506180004 | 64 | 6 | 3.5 | 7.8 | 0.00 | 0.00 | 0.00 | 72 | 1020.3 |
| 20260506175503 | 63 | 355 | 3.5 | 7.0 | 0.00 | 0.00 | 0.00 | 72 | 1020.3 |
| 20260506175024 | 63 | 352 | 3.5 | 7.8 | 0.00 | 0.00 | 0.00 | 72 | 1020.2 |
| 20260506174503 | 62 | 337 | 4.3 | 7.8 | 0.00 | 0.00 | 0.00 | 72 | 1020.3 |
| 20260506174003 | 62 | 335 | 4.3 | 7.8 | 0.00 | 0.00 | 0.00 | 72 | 1020.4 |
| 20260506173524 | 62 | 335 | 4.3 | 7.8 | 0.00 | 0.00 | 0.00 | 72 | 1020.3 |
| 20260506173003 | 62 | 335 | 3.5 | 7.8 | 0.00 | 0.00 | 0.00 | 73 | 1020.4 |
| 20260506172503 | 62 | 333 | 3.5 | 7.8 | 0.00 | 0.00 | 0.00 | 73 | 1020.3 |
| 20260506172003 | 62 | 338 | 3.5 | 7.8 | 0.00 | 0.00 | 0.00 | 73 | 1020.4 |
| 20260506171503 | 62 | 338 | 3.5 | 7.0 | 0.00 | 0.00 | 0.00 | 73 | 1020.4 |
| 20260506171024 | 62 | 330 | 4.3 | 7.0 | 0.00 | 0.00 | 0.00 | 73 | 1020.4 |
| 20260506170503 | 62 | 325 | 4.3 | 7.0 | 0.00 | 0.00 | 0.00 | 74 | 1020.6 |
| 20260506170003 | 62 | 322 | 3.5 | 7.0 | 0.00 | 0.00 | 0.00 | 73 | 1020.5 |
| 20260506165503 | 62 | 323 | 3.5 | 7.0 | 0.00 | 0.00 | 0.00 | 73 | 1020.5 |
| 20260506165003 | 62 | 315 | 2.6 | 6.1 | 0.00 | 0.00 | 0.00 | 73 | 1020.6 |
| 20260506164503 | 62 | 321 | 2.6 | 6.1 | 0.00 | 0.00 | 0.00 | 73 | 1020.5 |
| 20260506164003 | 62 | 317 | 2.6 | 6.1 | 0.00 | 0.00 | 0.00 | 72 | 1020.5 |
| 20260506163503 | 62 | 312 | 2.6 | 6.1 | 0.00 | 0.00 | 0.00 | 73 | 1020.5 |
| 20260506163003 | 62 | 306 | 1.7 | 7.0 | 0.00 | 0.00 | 0.00 | 74 | 1020.4 |
| 20260506162503 | 61 | 292 | 1.7 | 7.0 | 0.00 | 0.00 | 0.00 | 75 | 1020.5 |
| 20260506162003 | 60 | 287 | 1.7 | 6.1 | 0.00 | 0.00 | 0.00 | 77 | 1020.5 |
| 20260506161503 | 60 | 302 | 2.6 | 5.2 | 0.00 | 0.00 | 0.00 | 76 | 1020.6 |
| 20260506161003 | 59 | 304 | 2.6 | 5.2 | 0.00 | 0.00 | 0.00 | 76 | 1020.5 |
| 20260506160503 | 59 | 274 | 2.6 | 6.1 | 0.00 | 0.00 | 0.00 | 76 | 1020.6 |
| 20260506160003 | 59 | 266 | 1.7 | 6.1 | 0.00 | 0.00 | 0.00 | 76 | 1020.5 |
| 20260506155503 | 59 | 260 | 1.7 | 3.5 | 0.00 | 0.00 | 0.00 | 77 | 1020.6 |
| 20260506155003 | 58 | 225 | 1.7 | 4.3 | 0.00 | 0.00 | 0.00 | 77 | 1020.5 |
| 20260506154503 | 58 | 191 | 1.7 | 4.3 | 0.00 | 0.00 | 0.00 | 77 | 1020.5 |
| 20260506154024 | 58 | 204 | 2.6 | 6.1 | 0.00 | 0.00 | 0.00 | 77 | 1020.5 |
| 20260506153503 | 58 | 223 | 1.7 | 6.1 | 0.00 | 0.00 | 0.00 | 77 | 1020.5 |
| 20260506153003 | 58 | 252 | 1.7 | 5.2 | 0.00 | 0.00 | 0.00 | 78 | 1020.5 |
| 20260506152503 | 58 | 246 | 2.6 | 5.2 | 0.00 | 0.00 | 0.00 | 78 | 1020.4 |
| 20260506152003 | 58 | 240 | 2.6 | 5.2 | 0.00 | 0.00 | 0.00 | 79 | 1020.3 |
| 20260506151503 | 58 | 254 | 1.7 | 5.2 | 0.00 | 0.00 | 0.00 | 79 | 1020.4 |
| 20260506151003 | 58 | 265 | 2.6 | 5.2 | 0.00 | 0.00 | 0.00 | 80 | 1020.4 |
| 20260506150503 | 58 | 272 | 2.6 | 6.1 | 0.00 | 0.00 | 0.00 | 80 | 1020.3 |
| 20260506150003 | 57 | 269 | 3.5 | 6.1 | 0.00 | 0.00 | 0.00 | 80 | 1020.3 |
| 20260506145503 | 57 | 258 | 2.6 | 6.1 | 0.00 | 0.00 | 0.00 | 80 | 1020.3 |
| 20260506145003 | 57 | 245 | 2.6 | 5.2 | 0.00 | 0.00 | 0.00 | 81 | 1020.4 |
| 20260506144503 | 57 | 248 | 2.6 | 4.3 | 0.00 | 0.00 | 0.00 | 81 | 1020.4 |
| 20260506144003 | 57 | 254 | 2.6 | 3.5 | 0.00 | 0.00 | 0.00 | 81 | 1020.2 |
| 20260506143503 | 57 | 246 | 1.7 | 3.5 | 0.00 | 0.00 | 0.00 | 82 | 1020.4 |
| 20260506143003 | 57 | 237 | 0.9 | 3.5 | 0.00 | 0.00 | 0.00 | 82 | 1020.3 |
| 20260506142503 | 57 | 237 | 0.9 | 2.6 | 0.00 | 0.00 | 0.00 | 82 | 1020.2 |
| 20260506142003 | 57 | 245 | 0.9 | 2.6 | 0.00 | 0.00 | 0.00 | 82 | 1020.1 |
| 20260506141503 | 57 | 269 | 0.9 | 3.5 | 0.00 | 0.00 | 0.00 | 82 | 1020.1 |
| 20260506141003 | 57 | 269 | 1.7 | 3.5 | 0.00 | 0.00 | 0.00 | 83 | 1019.9 |
| 20260506140503 | 57 | 268 | 1.7 | 3.5 | 0.00 | 0.00 | 0.00 | 83 | 1019.8 |
| 20260506140003 | 56 | 266 | 0.9 | 3.5 | 0.00 | 0.00 | 0.00 | 83 | 1019.8 |
| 20260506135524 | 56 | 263 | 0.9 | 3.5 | 0.00 | 0.00 | 0.00 | 83 | 1019.7 |
| 20260506135003 | 56 | 272 | 0.9 | 2.6 | 0.00 | 0.00 | 0.00 | 83 | 1019.7 |
| 20260506134503 | 56 | 272 | 1.7 | 2.6 | 0.00 | 0.00 | 0.00 | 83 | 1019.6 |
| 20260506134003 | 56 | 272 | 1.7 | 3.5 | 0.00 | 0.00 | 0.00 | 83 | 1019.7 |
| 20260506133503 | 56 | 274 | 1.7 | 3.5 | 0.00 | 0.00 | 0.00 | 83 | 1019.6 |
| 20260506133024 | 56 | 273 | 1.7 | 3.5 | 0.00 | 0.00 | 0.00 | 83 | 1019.5 |
| 20260506132503 | 56 | 271 | 1.7 | 3.5 | 0.00 | 0.00 | 0.00 | 83 | 1019.5 |
| 20260506132003 | 56 | 272 | 0.9 | 3.5 | 0.00 | 0.00 | 0.00 | 83 | 1019.4 |
| 20260506131524 | 56 | 267 | 1.7 | 3.5 | 0.00 | 0.00 | 0.00 | 83 | 1019.4 |
| 20260506131003 | 56 | 266 | 1.7 | 3.5 | 0.00 | 0.00 | 0.00 | 83 | 1019.3 |
| 20260506130503 | 56 | 271 | 0.9 | 3.5 | 0.00 | 0.00 | 0.00 | 83 | 1019.4 |
| 20260506130003 | 56 | 274 | 0.9 | 3.5 | 0.00 | 0.00 | 0.00 | 83 | 1019.4 |
| 20260506125503 | 56 | 277 | 0.9 | 3.5 | 0.00 | 0.00 | 0.00 | 83 | 1019.3 |
| 20260506125003 | 56 | 273 | 1.7 | 3.5 | 0.00 | 0.00 | 0.00 | 82 | 1019.3 |
| 20260506124524 | 56 | 272 | 1.7 | 2.6 | 0.00 | 0.00 | 0.00 | 82 | 1019.1 |
| 20260506124003 | 56 | 282 | 1.7 | 3.5 | 0.00 | 0.00 | 0.00 | 82 | 1019.1 |
| 20260506123503 | 56 | 301 | 1.7 | 3.5 | 0.00 | 0.00 | 0.00 | 82 | 1019.2 |
| 20260506123003 | 56 | 309 | 1.7 | 5.2 | 0.00 | 0.00 | 0.00 | 82 | 1019.2 |
| 20260506122524 | 56 | 308 | 2.6 | 5.2 | 0.00 | 0.00 | 0.00 | 82 | 1019.1 |
| 20260506122003 | 56 | 319 | 2.6 | 7.0 | 0.00 | 0.00 | 0.00 | 82 | 1019.2 |
| 20260506121503 | 56 | 321 | 2.6 | 5.2 | 0.00 | 0.00 | 0.00 | 82 | 1019.1 |
| 20260506121003 | 56 | 317 | 2.6 | 5.2 | 0.00 | 0.00 | 0.00 | 82 | 1019.1 |
| 20260506120503 | 56 | 317 | 1.7 | 5.2 | 0.00 | 0.00 | 0.00 | 83 | 1019.1 |
| 20260506120003 | 56 | 312 | 0.9 | 5.2 | 0.00 | 0.00 | 0.00 | 83 | 1019.0 |
| 20260506115503 | 56 | 288 | 0.9 | 5.2 | 0.00 | 0.00 | 0.00 | 82 | 1019.0 |
| 20260506115003 | 56 | 292 | 1.7 | 5.2 | 0.00 | 0.00 | 0.00 | 83 | 1019.0 |
| 20260506114503 | 56 | 303 | 0.9 | 3.5 | 0.00 | 0.01 | 0.00 | 83 | 1019.0 |
| 20260506114003 | 56 | 285 | 0.9 | 6.1 | 0.00 | 0.01 | 0.00 | 83 | 1019.1 |
| 20260506113503 | 56 | 282 | 1.7 | 6.1 | 0.00 | 0.01 | 0.00 | 83 | 1019.1 |
| 20260506113003 | 56 | 277 | 1.7 | 5.2 | 0.00 | 0.01 | 0.00 | 83 | 1018.9 |
| 20260506112503 | 56 | 269 | 1.7 | 5.2 | 0.00 | 0.01 | 0.00 | 83 | 1019.0 |
| 20260506112003 | 56 | 272 | 0.9 | 3.5 | 0.00 | 0.01 | 0.00 | 83 | 1019.0 |
| 20260506111503 | 56 | 287 | 0.9 | 3.5 | 0.00 | 0.01 | 0.00 | 83 | 1019.0 |
| 20260506111004 | 56 | 297 | 0.9 | 5.2 | 0.00 | 0.01 | 0.00 | 83 | 1018.9 |
| 20260506110503 | 56 | 295 | 0.9 | 5.2 | 0.00 | 0.01 | 0.00 | 83 | 1018.9 |
| 20260506110003 | 56 | 276 | 0.9 | 3.5 | 0.00 | 0.01 | 0.00 | 83 | 1019.0 |
| 20260506105503 | 56 | 273 | 0.9 | 2.6 | 0.00 | 0.01 | 0.00 | 83 | 1018.8 |
| 20260506105003 | 56 | 268 | 0.9 | 2.6 | 0.00 | 0.01 | 0.00 | 83 | 1018.8 |
| 20260506104503 | 56 | 268 | 0.9 | 2.6 | 0.00 | 0.01 | 0.00 | 83 | 1018.7 |
| 20260506104003 | 56 | 271 | 0.9 | 2.6 | 0.00 | 0.01 | 0.00 | 83 | 1018.8 |
| 20260506103524 | 56 | 295 | 0.0 | 1.7 | 0.00 | 0.01 | 0.00 | 83 | 1018.8 |
| 20260506103003 | 57 | 256 | 0.0 | 0.9 | 0.00 | 0.01 | 0.00 | 83 | 1018.8 |
| 20260506102524 | 57 | 256 | 0.0 | 0.9 | 0.00 | 0.01 | 0.00 | 83 | 1018.7 |
| 20260506102003 | 57 | 0 | 0.0 | 2.6 | 0.00 | 0.01 | 0.00 | 83 | 1018.7 |
| 20260506101503 | 57 | 256 | 0.0 | 2.6 | 0.00 | 0.01 | 0.00 | 83 | 1018.7 |
| 20260506101003 | 57 | 261 | 0.9 | 2.6 | 0.00 | 0.01 | 0.00 | 83 | 1018.7 |
| 20260506100503 | 57 | 262 | 0.9 | 3.5 | 0.00 | 0.01 | 0.00 | 83 | 1018.7 |
| 20260506100003 | 57 | 262 | 0.9 | 3.5 | 0.00 | 0.01 | 0.00 | 83 | 1018.6 |
| 20260506095503 | 57 | 283 | 0.9 | 3.5 | 0.00 | 0.01 | 0.00 | 83 | 1018.7 |
| 20260506095003 | 57 | 283 | 0.9 | 3.5 | 0.00 | 0.01 | 0.00 | 83 | 1018.7 |
| 20260506094503 | 57 | 280 | 0.9 | 3.5 | 0.00 | 0.01 | 0.00 | 83 | 1018.8 |
| 20260506094003 | 57 | 282 | 0.9 | 3.5 | 0.00 | 0.01 | 0.00 | 83 | 1018.7 |
| 20260506093524 | 57 | 288 | 0.9 | 3.5 | 0.00 | 0.01 | 0.00 | 83 | 1018.7 |
| 20260506093003 | 57 | 279 | 0.0 | 2.6 | 0.00 | 0.01 | 0.00 | 83 | 1018.8 |
| 20260506092503 | 57 | 283 | 0.9 | 2.6 | 0.00 | 0.01 | 0.00 | 83 | 1018.6 |
| 20260506092003 | 57 | 305 | 0.9 | 3.5 | 0.00 | 0.01 | 0.00 | 83 | 1018.7 |
| 20260506091503 | 57 | 311 | 0.9 | 3.5 | 0.00 | 0.01 | 0.00 | 82 | 1018.6 |
| 20260506091003 | 57 | 280 | 0.0 | 1.7 | 0.00 | 0.01 | 0.00 | 82 | 1018.6 |